SCP
0 0 0 0 0 0 1 2 2 2 1 1 2 2 2 2 1 1 1 0 0 1 0 1 1 1 0 0 0 0 0 0
0 0 0 0 0 0 0 2 4 2 1 1 2 1 1 1 1 0 1 1 1 0 0 0 0 0 0 0 0 0 0 0
0 0 0 0 0 0 1 2 4 2 1 1 2 1 1 1 1 1 1 1 1 0 0 0 0 0 0 0 0 0 0 0
0 0 0 0 0 0 0 1 2 2 2 2 2 2 1 1 1 1 1 1 0 0 1 0 0 0 0 0 0 0 0 0
0 0 0 0 0 0 0 1 1 2 2 1 3 3 2 1 1 1 1 1 1 1 1 1 0 0 0 0 0 0 0 0
0 0 0 0 0 0 0 1 2 3 2 5 3 3 2 1 1 1 1 1 1 1 1 1 1 1 0 0 0 0 0 0
0 0 0 0 0 0 1 3 3 4 4 4 6 3 2 1 1 1 1 1 1 1 1 1 1 1 1 0 0 0 0 0
0 0 0 0 0 0 1 3 4 5 6 4 5 3 1 1 1 1 1 1 1 1 1 1 1 1 0 0 0 0 0 0
0 0 0 0 1 1 2 3 5 6 5 4 4 3 2 1 1 1 1 1 1 1 1 1 1 0 0 0 0 0 0 0
0 0 0 0 0 2 3 4 4 5 4 4 3 1 1 1 1 0 1 1 1 1 0 0 0 0 0 0 0 0 0 0
0 0 0 1 1 2 2 4 4 4 3 3 2 1 1 0 0 1 1 1 1 1 0 0 0 0 0 0 0 0 0 0
0 0 0 1 1 1 1 3 2 2 2 1 1 1 1 0 0 0 1 1 1 0 0 0 0 0 0 0 0 0 0 0
0 0 1 1 1 1 1 1 2 1 1 1 0 0 0 0 0 0 1 0 0 0 0 0 0 0 0 0 0 0 0 0
0 0 0 0 0 1 1 1 1 1 0 0 0 0 0 0 0 0 0 0 0 0 0 0 0 0 0 0 0 0 0 -0
0 -0 -0 -0 0 0 1 1 0 1 0 0 0 0 0 0 0 0 0 0 0 0 0 0 0 0 0 0 0 0 0 0
0 -0 -0 -0 0 0 0 0 0 0 0 0 0 0 0 0 0 0 0 0 0 0 0 0 0 0 0 0 0 0 -0 -0
-0 -0 -0 0 0 0 0 0 0 0 0 0 0 0 0 0 0 0 0 0 0 0 0 0 0 0 0 0 0 0 0 -0
-0 -0 -0 0 0 0 0 0 0 0 0 0 0 0 0 0 0 0 0 0 0 0 -0 -0 -0 0 0 0 0 0 0 -0
-0 -0 -0 -0 -0 -0 0 0 0 0 0 0 0 0 0 0 0 0 0 0 -0 0 -0 0 0 -0 0 0 0 0 0 0
-0 -0 -0 -0 -0 -0 0 0 0 0 0 0 0 0 0 0 0 0 0 0 -0 -0 -0 -0 0 0 0 0 0 0 0 -0
Wind_Speed_500mb
22 26 34 36 44 39 30 46 55 69 58 52 58 62 69 74 73 64 60 52 44 36 22 22 18 24 22 22 17 18 14 7
37 33 31 38 51 38 49 35 60 73 63 58 56 50 63 78 78 69 68 58 47 37 26 24 27 26 21 21 22 20 17 17
64 44 38 43 59 37 34 40 49 72 72 63 59 52 53 58 53 60 70 59 44 32 31 25 31 33 33 23 22 32 27 23
65 57 55 53 52 29 31 37 46 62 73 65 63 55 53 51 48 47 50 43 33 31 27 27 34 40 35 35 30 35 39 36
76 76 76 66 28 24 35 37 45 64 69 67 66 58 52 52 49 42 40 36 33 30 35 42 39 39 39 32 43 44 44 42
73 59 67 40 37 37 43 42 46 57 68 72 68 54 51 46 46 46 42 37 37 36 36 38 37 39 39 35 38 46 46 43
66 54 53 63 62 48 45 51 49 55 61 76 76 61 59 44 56 56 47 39 36 35 33 30 30 36 40 41 40 40 40 39
53 64 62 51 46 42 39 53 53 55 55 70 76 69 56 54 42 42 37 31 32 32 21 29 37 42 41 40 38 34 34 32
65 53 31 36 49 47 40 49 56 56 61 69 66 75 57 52 44 26 31 31 27 20 28 38 42 44 40 35 32 31 33 30
48 54 64 67 51 35 38 49 53 57 63 66 58 58 52 42 42 38 37 35 37 37 31 37 37 40 37 30 26 27 27 27
63 65 57 56 42 42 38 47 49 57 57 50 41 45 40 35 46 41 38 38 38 28 30 37 35 32 25 22 21 19 21 23
88 75 66 52 43 40 38 39 50 52 46 41 44 45 42 33 34 37 39 34 30 31 30 29 25 19 16 15 16 16 22 28
75 62 40 47 45 38 30 43 46 42 38 41 43 44 29 36 37 28 27 28 25 28 28 19 11 12 13 14 15 18 22 25
48 38 39 49 40 31 34 41 46 44 42 45 41 43 36 31 30 23 19 18 23 29 22 13 9 8 9 7 5 6 6 10
47 56 56 49 42 37 36 45 50 48 43 41 41 35 33 39 28 21 20 21 17 15 16 13 8 10 5 2 3 4 5 5
62 64 59 48 42 39 46 54 53 51 42 38 38 30 29 22 20 19 20 17 10 11 13 6 9 6 6 9 7 5 5 7
58 52 47 45 42 46 56 50 53 51 42 37 26 24 23 21 21 12 10 5 13 13 6 4 3 1 5 12 13 13 10 6
57 52 51 45 45 49 48 44 54 43 38 32 22 21 16 14 14 8 6 21 17 6 6 7 4 5 5 9 11 9 10 11
61 60 51 45 52 47 43 46 46 40 38 27 25 19 10 8 3 6 19 19 14 11 12 12 11 10 4 4 4 11 13 10
67 64 55 57 54 47 44 43 43 34 37 27 24 16 14 14 8 12 24 21 23 11 6 4 10 15 13 8 7 18 17 10
Wind_Direction_500mb
279 278 283 288 283 292 273 237 232 224 218 226 224 227 235 235 235 237 244 247 249 250 266 275 274 285 278 291 293 295 302 296
277 253 268 262 272 272 291 238 235 225 223 232 237 233 237 235 235 240 243 243 244 247 257 269 261 263 274 278 279 280 274 260
282 269 272 265 268 262 262 263 255 231 226 234 242 244 242 235 235 244 241 241 240 243 242 242 243 257 271 262 262 277 264 244
283 270 269 262 261 245 263 262 250 242 228 239 245 244 253 242 237 237 228 229 241 244 249 250 251 261 269 254 243 251 252 248
275 275 273 262 238 271 279 269 252 239 237 241 239 238 243 236 235 234 230 229 238 250 242 242 255 264 274 252 245 248 258 250
273 291 271 222 244 263 281 263 253 241 235 233 223 223 227 228 225 216 222 222 237 261 258 249 254 267 269 267 268 254 259 254
269 277 280 260 258 264 278 266 251 244 231 226 213 212 216 211 204 211 219 233 253 261 270 258 267 277 274 275 273 260 255 255
265 272 271 263 253 266 268 254 248 238 233 221 212 214 211 213 210 214 221 231 242 257 273 275 278 277 278 275 272 258 256 252
256 258 279 274 256 256 265 244 235 232 225 217 203 210 205 206 203 209 215 231 238 240 250 266 275 279 281 277 274 263 255 244
247 262 277 275 257 258 247 235 226 225 221 215 210 209 210 222 217 211 227 233 242 258 268 274 275 284 285 282 272 257 248 233
269 270 278 267 253 252 241 227 225 218 211 197 193 194 204 212 214 216 231 238 248 260 267 272 276 279 282 267 259 250 244 227
267 263 263 250 235 231 220 219 202 198 195 189 189 188 193 194 201 215 221 235 244 263 287 290 287 278 280 278 264 253 238 240
255 247 232 211 216 209 204 191 188 187 182 185 178 183 178 184 204 221 211 228 260 280 285 281 290 281 284 276 268 260 250 246
249 208 195 184 189 187 181 172 174 174 171 173 176 179 189 188 186 197 212 247 272 269 267 240 270 302 282 264 238 249 230 232
156 160 164 170 170 172 167 165 165 167 166 175 176 176 177 185 184 204 239 257 271 260 222 228 272 279 278 210 207 172 206 223
147 156 158 161 163 163 161 162 159 167 164 166 176 192 200 197 203 218 245 255 281 193 197 225 249 247 227 227 228 211 195 212
146 148 152 158 155 154 158 157 160 167 167 167 175 175 168 183 206 220 243 256 170 178 149 198 175 300 257 262 259 256 246 202
142 148 152 153 150 149 156 157 159 164 161 168 160 157 179 199 220 205 191 152 152 137 107 68 56 330 322 262 257 247 228 204
145 150 151 151 150 152 153 153 157 161 162 164 154 170 192 193 233 168 165 152 148 147 88 39 10 8 357 280 214 200 225 244
149 151 150 153 155 155 155 155 162 164 163 168 175 184 203 208 193 182 179 176 160 137 91 279 329 347 346 335 254 228 218 223
Wind_Speed_850mb
22 26 34 36 44 39 30 46 55 69 58 52 58 62 69 74 73 64 60 52 44 36 22 22 18 24 22 22 17 18 14 7
37 33 31 38 51 38 49 35 60 73 63 58 56 50 63 78 78 69 68 58 47 37 26 24 27 26 21 21 22 20 17 17
64 44 38 43 59 37 34 40 49 72 72 63 59 52 53 58 53 60 70 59 44 32 31 25 31 33 33 23 22 32 27 23
65 57 55 53 52 29 31 37 46 62 73 65 63 55 53 51 48 47 50 43 33 31 27 27 34 40 35 35 30 35 39 36
76 76 76 66 28 24 35 37 45 64 69 67 66 58 52 52 49 42 40 36 33 30 35 42 39 39 39 32 43 44 44 42
73 59 67 40 37 37 43 42 46 57 68 72 68 54 51 46 46 46 42 37 37 36 36 38 37 39 39 35 38 46 46 43
66 54 53 63 62 48 45 51 49 55 61 76 76 61 59 44 56 56 47 39 36 35 33 30 30 36 40 41 40 40 40 39
53 64 62 51 46 42 39 53 53 55 55 70 76 69 56 54 42 42 37 31 32 32 21 29 37 42 41 40 38 34 34 32
65 53 31 36 49 47 40 49 56 56 61 69 66 75 57 52 44 26 31 31 27 20 28 38 42 44 40 35 32 31 33 30
48 54 64 67 51 35 38 49 53 57 63 66 58 58 52 42 42 38 37 35 37 37 31 37 37 40 37 30 26 27 27 27
63 65 57 56 42 42 38 47 49 57 57 50 41 45 40 35 46 41 38 38 38 28 30 37 35 32 25 22 21 19 21 23
88 75 66 52 43 40 38 39 50 52 46 41 44 45 42 33 34 37 39 34 30 31 30 29 25 19 16 15 16 16 22 28
75 62 40 47 45 38 30 43 46 42 38 41 43 44 29 36 37 28 27 28 25 28 28 19 11 12 13 14 15 18 22 25
48 38 39 49 40 31 34 41 46 44 42 45 41 43 36 31 30 23 19 18 23 29 22 13 9 8 9 7 5 6 6 10
47 56 56 49 42 37 36 45 50 48 43 41 41 35 33 39 28 21 20 21 17 15 16 13 8 10 5 2 3 4 5 5
62 64 59 48 42 39 46 54 53 51 42 38 38 30 29 22 20 19 20 17 10 11 13 6 9 6 6 9 7 5 5 7
58 52 47 45 42 46 56 50 53 51 42 37 26 24 23 21 21 12 10 5 13 13 6 4 3 1 5 12 13 13 10 6
57 52 51 45 45 49 48 44 54 43 38 32 22 21 16 14 14 8 6 21 17 6 6 7 4 5 5 9 11 9 10 11
61 60 51 45 52 47 43 46 46 40 38 27 25 19 10 8 3 6 19 19 14 11 12 12 11 10 4 4 4 11 13 10
67 64 55 57 54 47 44 43 43 34 37 27 24 16 14 14 8 12 24 21 23 11 6 4 10 15 13 8 7 18 17 10
Wind_Direction_850mb
279 278 283 288 283 292 273 237 232 224 218 226 224 227 235 235 235 237 244 247 249 250 266 275 274 285 278 291 293 295 302 296
277 253 268 262 272 272 291 238 235 225 223 232 237 233 237 235 235 240 243 243 244 247 257 269 261 263 274 278 279 280 274 260
282 269 272 265 268 262 262 263 255 231 226 234 242 244 242 235 235 244 241 241 240 243 242 242 243 257 271 262 262 277 264 244
283 270 269 262 261 245 263 262 250 242 228 239 245 244 253 242 237 237 228 229 241 244 249 250 251 261 269 254 243 251 252 248
275 275 273 262 238 271 279 269 252 239 237 241 239 238 243 236 235 234 230 229 238 250 242 242 255 264 274 252 245 248 258 250
273 291 271 222 244 263 281 263 253 241 235 233 223 223 227 228 225 216 222 222 237 261 258 249 254 267 269 267 268 254 259 254
269 277 280 260 258 264 278 266 251 244 231 226 213 212 216 211 204 211 219 233 253 261 270 258 267 277 274 275 273 260 255 255
265 272 271 263 253 266 268 254 248 238 233 221 212 214 211 213 210 214 221 231 242 257 273 275 278 277 278 275 272 258 256 252
256 258 279 274 256 256 265 244 235 232 225 217 203 210 205 206 203 209 215 231 238 240 250 266 275 279 281 277 274 263 255 244
247 262 277 275 257 258 247 235 226 225 221 215 210 209 210 222 217 211 227 233 242 258 268 274 275 284 285 282 272 257 248 233
269 270 278 267 253 252 241 227 225 218 211 197 193 194 204 212 214 216 231 238 248 260 267 272 276 279 282 267 259 250 244 227
267 263 263 250 235 231 220 219 202 198 195 189 189 188 193 194 201 215 221 235 244 263 287 290 287 278 280 278 264 253 238 240
255 247 232 211 216 209 204 191 188 187 182 185 178 183 178 184 204 221 211 228 260 280 285 281 290 281 284 276 268 260 250 246
249 208 195 184 189 187 181 172 174 174 171 173 176 179 189 188 186 197 212 247 272 269 267 240 270 302 282 264 238 249 230 232
156 160 164 170 170 172 167 165 165 167 166 175 176 176 177 185 184 204 239 257 271 260 222 228 272 279 278 210 207 172 206 223
147 156 158 161 163 163 161 162 159 167 164 166 176 192 200 197 203 218 245 255 281 193 197 225 249 247 227 227 228 211 195 212
146 148 152 158 155 154 158 157 160 167 167 167 175 175 168 183 206 220 243 256 170 178 149 198 175 300 257 262 259 256 246 202
142 148 152 153 150 149 156 157 159 164 161 168 160 157 179 199 220 205 191 152 152 137 107 68 56 330 322 262 257 247 228 204
145 150 151 151 150 152 153 153 157 161 162 164 154 170 192 193 233 168 165 152 148 147 88 39 10 8 357 280 214 200 225 244
149 151 150 153 155 155 155 155 162 164 163 168 175 184 203 208 193 182 179 176 160 137 91 279 329 347 346 335 254 228 218 223